User: anonymous   Login
Location: Zagreb
(45.8000°N, 16.0000°E)
Time: 21:55:01
(UTC+02:00)
Language:

Vanguard 2 Rocket - Orbit

View from above orbital plane
View from above orbital plane
View from above satellite
View from above satellite

Ground track
Ground track

The orbit data is extracted from the following two-line orbital elements,

1    12U 59001B   20099.48920992 -.00000120  00000-0 -64042-4 0  9996
2    12  32.8972 235.7115 1666147  68.0884 308.8160 11.44294906514540
Epoch (UTC): 08 April 2020 11:44:27
Eccentricity: 0.1666147
inclination: 32.8972°
perigee height: 554 km
apogee height: 3326 km
right ascension of ascending node: 235.7115°
argument of perigee: 68.0884°
revolutions per day: 11.44294906
mean anomaly at epoch: 308.8160°
orbit number at epoch: 51454

The dashed part of the orbit path shows where the satellite is in the earth's shadow,  

DLR